This is the latest recevied weather packets stored in our database for station/object KD2SIG. If no packets are shown the sender has not sent any weather packets the latest 10 day(s).
| Time | Temp. | Humidity | Pressure | Rain* | Wind** | Luminosity | Snow |
|---|---|---|---|---|---|---|---|
| 1777997970 | 18.89° C | 72% | 1003.5 hPa | 0 mm | - | 42 W/m² | - |
| 1777997667 | 19.44° C | 72% | 1003.3 hPa | 0 mm | - | 49 W/m² | - |
| 1777997364 | 19.44° C | 71% | 1003.3 hPa | 0 mm | - | 91 W/m² | - |
| 1777997063 | 20° C | 69% | 1003.5 hPa | 0 mm | - | 52 W/m² | - |
| 1777996759 | 20° C | 68% | 1003.3 hPa | 0 mm | - | 71 W/m² | - |
| 1777996455 | 20.56° C | 68% | 1003.2 hPa | 0 mm | - | 75 W/m² | - |
| 1777996152 | 20.56° C | 67% | 1003.1 hPa | 0 mm | - | 183 W/m² | - |
| 1777995848 | 20.56° C | 68% | 1003.3 hPa | 0 mm | - | 321 W/m² | - |
| 1777995545 | 20.56° C | 68% | 1003.2 hPa | 0 mm | - | 209 W/m² | - |
| 1777995241 | 20.56° C | 67% | 1003.6 hPa | 0 mm | - | 173 W/m² | - |
| 1777994938 | 20.56° C | 65% | 1003.5 hPa | 0 mm | - | 196 W/m² | - |
| 1777994630 | 20.56° C | 65% | 1003.3 hPa | 0 mm | - | 173 W/m² | - |
| 1777994329 | 20.56° C | 65% | 1003.4 hPa | 0 mm | - | 202 W/m² | - |
| 1777994027 | 20.56° C | 66% | 1003.3 hPa | 0 mm | - | 157 W/m² | - |
| 1777993723 | 20.56° C | 67% | 1003.4 hPa | 0 mm | - | 187 W/m² | - |
| 1777993421 | 20.56° C | 68% | 1003.3 hPa | 0 mm | - | 203 W/m² | - |
| 1777993115 | 20.56° C | 68% | 1003.1 hPa | 0 mm | - | 164 W/m² | - |
| 1777992813 | 20.56° C | 64% | 1002.8 hPa | 0 mm | - | 93 W/m² | - |
| 1777992511 | 21.11° C | 63% | 1002.8 hPa | 0 mm | - | 105 W/m² | - |
| 1777992209 | 21.67° C | 63% | 1002.8 hPa | 0 mm | - | 144 W/m² | - |
| 1777991906 | 21.67° C | 62% | 1002.7 hPa | 0 mm | - | 301 W/m² | - |
| 1777991603 | 21.67° C | 62% | 1002.8 hPa | 0 mm | - | 346 W/m² | - |
| 1777991300 | 21.67° C | 61% | 1002.9 hPa | 0 mm | - | 354 W/m² | - |
| 1777990998 | 21.67° C | 61% | 1002.7 hPa | 0 mm | - | 349 W/m² | - |
| 1777990695 | 21.67° C | 62% | 1002.7 hPa | 0 mm | - | 340 W/m² | - |
* Rain latest hour (hover to see other rain measurements)
** Current wind speed in m/s (hover to see current wind gust speed)